Time,TemperatureF,DewpointF,PressureIn,WindDirection,WindDirectionDegrees,WindSpeedMPH,WindSpeedGustMPH,Humidity,HourlyPrecipIn,Conditions,Clouds,dailyrainin,SoftwareType,DateUTC
2013-09-04 00:09:00,54.4,53.0,29.90,NW,325,0.0,0.0,96,0.00,,,0.00,weatherlink.com 1.10,2013-09-04 04:09:00,
2013-09-04 00:24:00,54.0,53.0,29.90,NW,325,0.0,0.0,96,0.00,,,0.00,weatherlink.com 1.10,2013-09-04 04:24:00,
2013-09-04 00:39:00,54.2,53.0,29.90,NW,325,0.0,0.0,97,0.00,,,0.00,weatherlink.com 1.10,2013-09-04 04:39:00,
2013-09-04 00:54:00,54.1,53.0,29.90,NW,325,0.0,0.0,97,0.00,,,0.00,weatherlink.com 1.10,2013-09-04 04:54:00,
2013-09-04 01:09:00,53.9,53.0,29.90,NW,325,0.0,0.0,97,0.00,,,0.00,weatherlink.com 1.10,2013-09-04 05:09:00,
2013-09-04 01:24:00,53.3,53.0,29.91,NW,325,0.0,0.0,97,0.00,,,0.00,weatherlink.com 1.10,2013-09-04 05:24:00,
2013-09-04 01:39:00,52.9,52.0,29.90,NW,325,0.0,0.0,96,0.00,,,0.00,weatherlink.com 1.10,2013-09-04 05:39:00,
2013-09-04 01:54:00,52.6,52.0,29.91,NW,325,0.0,0.0,97,0.00,,,0.00,weatherlink.com 1.10,2013-09-04 05:54:00,
2013-09-04 02:09:00,52.2,51.0,29.91,NW,325,0.0,0.0,97,0.00,,,0.00,weatherlink.com 1.10,2013-09-04 06:09:00,
2013-09-04 02:24:00,52.3,52.0,29.92,NW,325,0.0,0.0,97,0.00,,,0.00,weatherlink.com 1.10,2013-09-04 06:24:00,
2013-09-04 02:39:00,51.7,51.0,29.92,NW,325,0.0,0.0,97,0.00,,,0.00,weatherlink.com 1.10,2013-09-04 06:39:00,
2013-09-04 02:54:00,51.8,51.0,29.92,NW,325,0.0,0.0,97,0.00,,,0.00,weatherlink.com 1.10,2013-09-04 06:54:00,
2013-09-04 03:10:00,51.4,51.0,29.92,NW,325,0.0,0.0,97,0.00,,,0.00,weatherlink.com 1.10,2013-09-04 07:10:00,
2013-09-04 03:25:00,51.4,51.0,29.92,NW,325,0.0,0.0,97,0.00,,,0.00,weatherlink.com 1.10,2013-09-04 07:25:00,
2013-09-04 03:40:00,51.4,51.0,29.92,NW,325,0.0,0.0,97,0.00,,,0.00,weatherlink.com 1.10,2013-09-04 07:40:00,
2013-09-04 03:55:00,50.9,50.0,29.92,NW,325,0.0,0.0,97,0.00,,,0.00,weatherlink.com 1.10,2013-09-04 07:55:00,
2013-09-04 04:10:00,51.1,51.0,29.93,NW,325,0.0,0.0,98,0.00,,,0.00,weatherlink.com 1.10,2013-09-04 08:10:00,
2013-09-04 04:25:00,51.0,51.0,29.93,NW,325,0.0,0.0,98,0.00,,,0.00,weatherlink.com 1.10,2013-09-04 08:25:00,
2013-09-04 04:40:00,50.8,50.0,29.93,NW,325,0.0,0.0,97,0.00,,,0.00,weatherlink.com 1.10,2013-09-04 08:40:00,
2013-09-04 04:55:00,50.8,50.0,29.93,NW,325,0.0,0.0,98,0.00,,,0.00,weatherlink.com 1.10,2013-09-04 08:55:00,
2013-09-04 05:10:00,50.7,50.0,29.93,NW,325,0.0,0.0,98,0.00,,,0.00,weatherlink.com 1.10,2013-09-04 09:10:00,
2013-09-04 05:25:00,50.6,50.0,29.93,NW,325,0.0,0.0,98,0.00,,,0.00,weatherlink.com 1.10,2013-09-04 09:25:00,
2013-09-04 05:40:00,51.0,51.0,29.93,NW,325,0.0,0.0,98,0.00,,,0.00,weatherlink.com 1.10,2013-09-04 09:40:00,
2013-09-04 05:55:00,51.3,51.0,29.94,NW,325,0.0,0.0,98,0.00,,,0.00,weatherlink.com 1.10,2013-09-04 09:55:00,
2013-09-04 06:10:00,51.1,51.0,29.94,NW,325,0.0,0.0,98,0.00,,,0.00,weatherlink.com 1.10,2013-09-04 10:10:00,
2013-09-04 06:25:00,51.3,51.0,29.94,NW,325,0.0,0.0,98,0.00,,,0.00,weatherlink.com 1.10,2013-09-04 10:25:00,
2013-09-04 06:40:00,51.5,51.0,29.94,NW,325,0.0,0.0,98,0.00,,,0.00,weatherlink.com 1.10,2013-09-04 10:40:00,
2013-09-04 06:55:00,52.1,52.0,29.94,NW,325,0.0,2.0,99,0.00,,,0.00,weatherlink.com 1.10,2013-09-04 10:55:00,
2013-09-04 07:10:00,52.6,52.0,29.95,NW,323,0.0,2.0,99,0.00,,,0.00,weatherlink.com 1.10,2013-09-04 11:10:00,
2013-09-04 07:25:00,52.8,53.0,29.95,NW,323,0.0,1.0,99,0.00,,,0.00,weatherlink.com 1.10,2013-09-04 11:25:00,
2013-09-04 07:40:00,53.4,53.0,29.96,NW,323,0.0,2.0,99,0.00,,,0.00,weatherlink.com 1.10,2013-09-04 11:40:00,
2013-09-04 07:55:00,54.5,54.0,29.95,NW,312,1.0,2.0,99,0.00,,,0.00,weatherlink.com 1.10,2013-09-04 11:55:00,
2013-09-04 08:10:00,55.9,56.0,29.96,WNW,284,0.0,3.0,99,0.00,,,0.00,weatherlink.com 1.10,2013-09-04 12:10:00,
2013-09-04 08:25:00,57.2,57.0,29.96,WNW,284,1.0,3.0,99,0.00,,,0.00,weatherlink.com 1.10,2013-09-04 12:25:00,
2013-09-04 08:40:00,58.4,58.0,29.97,WNW,284,0.0,3.0,98,0.00,,,0.00,weatherlink.com 1.10,2013-09-04 12:40:00,
2013-09-04 08:55:00,59.8,59.0,29.97,WSW,250,0.0,4.0,96,0.00,,,0.00,weatherlink.com 1.10,2013-09-04 12:55:00,
2013-09-04 09:10:00,61.4,60.0,29.97,West,277,1.0,4.0,94,0.00,,,0.00,weatherlink.com 1.10,2013-09-04 13:10:00,
2013-09-04 09:25:00,62.8,61.0,29.96,West,260,2.0,4.0,92,0.00,,,0.00,weatherlink.com 1.10,2013-09-04 13:25:00,
2013-09-04 09:40:00,64.4,61.0,29.96,West,267,2.0,5.0,89,0.00,,,0.00,weatherlink.com 1.10,2013-09-04 13:40:00,
2013-09-04 09:55:00,65.9,62.0,29.97,WNW,295,5.0,6.0,88,0.00,,,0.00,weatherlink.com 1.10,2013-09-04 13:55:00,
2013-09-04 10:11:00,67.7,63.0,29.96,WSW,257,3.0,7.0,85,0.00,,,0.00,weatherlink.com 1.10,2013-09-04 14:11:00,
2013-09-04 10:26:00,69.1,63.0,29.96,West,262,5.0,7.0,82,0.00,,,0.00,weatherlink.com 1.10,2013-09-04 14:26:00,
2013-09-04 10:41:00,70.0,64.0,29.96,South,182,4.0,9.0,80,0.00,,,0.00,weatherlink.com 1.10,2013-09-04 14:41:00,
2013-09-04 10:56:00,71.1,64.0,29.96,WNW,286,1.0,7.0,77,0.00,,,0.00,weatherlink.com 1.10,2013-09-04 14:56:00,
2013-09-04 11:11:00,72.0,62.0,29.96,SSW,213,3.0,9.0,71,0.00,,,0.00,weatherlink.com 1.10,2013-09-04 15:11:00,
2013-09-04 11:26:00,72.5,62.0,29.96,WNW,288,2.0,8.0,70,0.00,,,0.00,weatherlink.com 1.10,2013-09-04 15:26:00,
2013-09-04 11:41:00,73.0,62.0,29.96,WNW,302,8.0,8.0,69,0.00,,,0.00,weatherlink.com 1.10,2013-09-04 15:41:00,
2013-09-04 11:56:00,74.0,62.0,29.96,WSW,238,5.0,11.0,66,0.00,,,0.00,weatherlink.com 1.10,2013-09-04 15:56:00,
2013-09-04 12:11:00,75.0,62.0,29.97,WNW,299,4.0,9.0,65,0.00,,,0.00,weatherlink.com 1.10,2013-09-04 16:11:00,
2013-09-04 12:26:00,75.3,62.0,29.97,SW,231,3.0,11.0,64,0.00,,,0.00,weatherlink.com 1.10,2013-09-04 16:26:00,
2013-09-04 12:41:00,76.3,63.0,29.96,WNW,302,4.0,9.0,63,0.00,,,0.00,weatherlink.com 1.10,2013-09-04 16:41:00,
2013-09-04 12:56:00,76.7,63.0,29.96,NW,314,6.0,7.0,62,0.00,,,0.00,weatherlink.com 1.10,2013-09-04 16:56:00,
2013-09-04 13:11:00,77.0,62.0,29.95,SSW,212,4.0,9.0,60,0.00,,,0.00,weatherlink.com 1.10,2013-09-04 17:11:00,
2013-09-04 13:41:00,78.2,61.0,29.95,WNW,300,1.0,9.0,55,0.00,,,0.00,weatherlink.com 1.10,2013-09-04 17:41:00,
2013-09-04 13:56:00,78.7,61.0,29.95,NNW,333,1.0,7.0,55,0.00,,,0.00,weatherlink.com 1.10,2013-09-04 17:56:00,
2013-09-04 14:11:00,79.1,60.0,29.95,West,259,6.0,8.0,53,0.00,,,0.00,weatherlink.com 1.10,2013-09-04 18:11:00,
2013-09-04 14:26:00,79.1,59.0,29.96,WNW,298,3.0,11.0,50,0.00,,,0.00,weatherlink.com 1.10,2013-09-04 18:26:00,
2013-09-04 14:41:00,79.2,59.0,29.96,WNW,289,5.0,8.0,51,0.00,,,0.00,weatherlink.com 1.10,2013-09-04 18:41:00,
2013-09-04 14:56:00,79.6,57.0,29.95,SSE,156,2.0,8.0,46,0.00,,,0.00,weatherlink.com 1.10,2013-09-04 18:56:00,
2013-09-04 15:11:00,79.6,59.0,29.95,West,261,4.0,9.0,50,0.00,,,0.00,weatherlink.com 1.10,2013-09-04 19:11:00,
2013-09-04 15:26:00,79.7,59.0,29.95,NW,314,1.0,7.0,50,0.00,,,0.00,weatherlink.com 1.10,2013-09-04 19:26:00,
2013-09-04 15:41:00,79.7,59.0,29.95,NNW,340,5.0,8.0,49,0.00,,,0.00,weatherlink.com 1.10,2013-09-04 19:41:00,
2013-09-04 15:56:00,79.0,58.0,29.95,NNW,342,5.0,9.0,48,0.00,,,0.00,weatherlink.com 1.10,2013-09-04 19:56:00,
2013-09-04 16:11:00,78.9,57.0,29.95,WNW,298,1.0,7.0,47,0.00,,,0.00,weatherlink.com 1.10,2013-09-04 20:11:00,
2013-09-04 16:26:00,78.8,57.0,29.94,WNW,299,7.0,9.0,48,0.00,,,0.00,weatherlink.com 1.10,2013-09-04 20:26:00,
2013-09-04 16:41:00,78.3,58.0,29.94,WSW,241,2.0,8.0,50,0.00,,,0.00,weatherlink.com 1.10,2013-09-04 20:41:00,
2013-09-04 16:56:00,78.1,59.0,29.93,SW,233,2.0,6.0,52,0.00,,,0.00,weatherlink.com 1.10,2013-09-04 20:56:00,
2013-09-04 17:11:00,77.5,58.0,29.94,NW,320,6.0,7.0,52,0.00,,,0.00,weatherlink.com 1.10,2013-09-04 21:11:00,
2013-09-04 17:26:00,76.7,58.0,29.93,West,274,1.0,7.0,52,0.00,,,0.00,weatherlink.com 1.10,2013-09-04 21:26:00,
2013-09-04 17:41:00,76.8,58.0,29.93,North,355,2.0,6.0,53,0.00,,,0.00,weatherlink.com 1.10,2013-09-04 21:41:00,
2013-09-04 17:56:00,77.0,59.0,29.94,WNW,294,4.0,6.0,54,0.00,,,0.00,weatherlink.com 1.10,2013-09-04 21:56:00,
2013-09-04 18:11:00,77.1,59.0,29.94,WNW,297,0.0,6.0,54,0.00,,,0.00,weatherlink.com 1.10,2013-09-04 22:11:00,
2013-09-04 18:26:00,76.5,57.0,29.93,NW,311,1.0,7.0,52,0.00,,,0.00,weatherlink.com 1.10,2013-09-04 22:26:00,
2013-09-04 18:41:00,76.4,58.0,29.93,WSW,258,1.0,5.0,53,0.00,,,0.00,weatherlink.com 1.10,2013-09-04 22:41:00,
2013-09-04 18:56:00,76.8,58.0,29.93,WNW,292,0.0,3.0,52,0.00,,,0.00,weatherlink.com 1.10,2013-09-04 22:56:00,
2013-09-04 19:11:00,76.7,58.0,29.93,WNW,283,2.0,4.0,53,0.00,,,0.00,weatherlink.com 1.10,2013-09-04 23:11:00,
2013-09-04 19:26:00,75.1,57.0,29.93,WNW,291,0.0,4.0,54,0.00,,,0.00,weatherlink.com 1.10,2013-09-04 23:26:00,
2013-09-04 19:41:00,73.3,57.0,29.93,SSW,206,0.0,1.0,57,0.00,,,0.00,weatherlink.com 1.10,2013-09-04 23:41:00,
2013-09-04 19:56:00,71.5,57.0,29.93,SW,219,0.0,2.0,61,0.00,,,0.00,weatherlink.com 1.10,2013-09-04 23:56:00,
2013-09-04 20:11:00,69.5,57.0,29.93,SW,219,0.0,0.0,64,0.00,,,0.00,weatherlink.com 1.10,2013-09-05 00:11:00,
2013-09-04 20:26:00,67.8,57.0,29.93,SW,219,0.0,0.0,69,0.00,,,0.00,weatherlink.com 1.10,2013-09-05 00:26:00,
2013-09-04 20:41:00,65.9,57.0,29.94,SW,219,0.0,0.0,73,0.00,,,0.00,weatherlink.com 1.10,2013-09-05 00:41:00,
2013-09-04 20:56:00,64.6,57.0,29.95,SW,219,0.0,0.0,76,0.00,,,0.00,weatherlink.com 1.10,2013-09-05 00:56:00,
2013-09-04 21:11:00,63.3,57.0,29.95,SW,219,0.0,1.0,80,0.00,,,0.00,weatherlink.com 1.10,2013-09-05 01:11:00,
2013-09-04 21:26:00,62.2,57.0,29.95,SW,219,0.0,0.0,84,0.00,,,0.00,weatherlink.com 1.10,2013-09-05 01:26:00,
2013-09-04 21:41:00,61.2,57.0,29.95,SW,219,0.0,0.0,85,0.00,,,0.00,weatherlink.com 1.10,2013-09-05 01:41:00,
2013-09-04 21:56:00,60.7,57.0,29.96,SW,219,0.0,0.0,87,0.00,,,0.00,weatherlink.com 1.10,2013-09-05 01:56:00,
2013-09-04 22:11:00,60.3,57.0,29.96,SW,219,0.0,0.0,89,0.00,,,0.00,weatherlink.com 1.10,2013-09-05 02:11:00,
2013-09-04 22:26:00,59.6,56.0,29.96,SW,219,0.0,0.0,89,0.00,,,0.00,weatherlink.com 1.10,2013-09-05 02:26:00,
2013-09-04 22:41:00,59.6,57.0,29.96,SW,219,0.0,0.0,91,0.00,,,0.00,weatherlink.com 1.10,2013-09-05 02:41:00,
2013-09-04 22:56:00,59.3,57.0,29.96,SW,219,0.0,0.0,91,0.00,,,0.00,weatherlink.com 1.10,2013-09-05 02:56:00,
2013-09-04 23:11:00,59.0,57.0,29.96,SW,219,0.0,0.0,92,0.00,,,0.00,weatherlink.com 1.10,2013-09-05 03:11:00,
2013-09-04 23:26:00,58.6,57.0,29.97,SW,219,0.0,0.0,93,0.00,,,0.00,weatherlink.com 1.10,2013-09-05 03:26:00,
2013-09-04 23:41:00,58.4,56.0,29.96,SW,219,0.0,0.0,93,0.00,,,0.00,weatherlink.com 1.10,2013-09-05 03:41:00,
2013-09-04 23:56:00,58.1,56.0,29.97,SW,219,0.0,0.0,94,0.00,,,0.00,weatherlink.com 1.10,2013-09-05 03:56:00,